Flag for Portugal Weather past 2 weeks in Ponta Delgada (Azores), Portugal

Now
61 °F

Passing clouds.


Feels Like: 61 °F
Forecast: 58 / 62 °F
Wind: 8 mph from North

Location: Ponta Delgada / Nordela Acores


UV Index: 5 (Moderate)

Visibility: N/A


Pressure: 29.74 "Hg

Humidity: 83%

Dew point: 55 °F

Location of Ponta Delgada (Azores)Location

Historic Weather in Ponta Delgada (Azores)

°F

Ponta Delgada (Azores) temperature yesterday

Maximum temperature yesterday: 63 °F (at 2:30 PM)
Minimum temperature yesterday: 57 °F (at 12:00 AM)
Average temperature yesterday: 59 °F

Past Weeks' High & Low Weather Summary

 TemperatureHumidityPressure
High64 °F (Apr 4, 1:00 PM)100% (Apr 4, 10:00 AM)30.27 "Hg (Apr 4, 10:00 AM)
Low52 °F (Apr 8, 5:30 AM)54% (Apr 19, 3:30 AM)29.68 "Hg (Apr 5, 1:30 PM)
Average58 °F86%29.97 "Hg
* Reported Apr 4 9:00 AM — Apr 19 9:00 AM, Ponta Delgada (Azores), Weather by CustomWeather, © 2014

Note: Actual official high and low records may vary slightly from our data, if they occured in-between our weather recording intervals... More about our weather records

Advertising

Historic Weather Conditions — Data for Previous 24 hours

 ConditionsComfort  
Time TempWeatherWind HumidityBarometerVisibility
9:00 AM
Apr 19
59 °FScattered clouds.7 mph82%29.74 "HgN/A
8:30 AM57 °FScattered clouds.6 mph88%29.74 "HgN/A
8:00 AM57 °FPassing clouds.1 mph88%29.74 "HgN/A
7:30 AM55 °FPassing clouds.2 mph88%29.71 "HgN/A
7:00 AM55 °FPassing clouds.2 mph88%29.71 "HgN/A
6:30 AM54 °FPassing clouds.5 mph94%29.68 "HgN/A
6:00 AM55 °FPassing clouds.6 mph88%29.68 "HgN/A
5:30 AM55 °FPassing clouds.6 mph88%29.68 "HgN/A
5:00 AM55 °FPassing clouds.2 mph88%29.68 "HgN/A
4:30 AM55 °FPassing clouds.3 mph94%29.68 "HgN/A
4:00 AM55 °FPassing clouds.2 mph88%29.68 "HgN/A
3:30 AM54 °FPassing clouds.5 mph54%29.68 "HgN/A
3:00 AM55 °FPassing clouds.1 mph94%29.68 "HgN/A
2:30 AM55 °FPassing clouds.3 mph94%29.68 "HgN/A
2:00 AM55 °FPassing clouds.3 mph94%29.68 "HgN/A
1:30 AM55 °FPassing clouds.3 mph94%29.71 "HgN/A
1:00 AM55 °FPassing clouds.1 mph94%29.71 "HgN/A
12:30 AM57 °FPassing clouds.3 mph88%29.71 "HgN/A
12:00 AM57 °FPassing clouds.2 mph88%29.71 "HgN/A
11:30 PM
Apr 18
57 °FPassing clouds.5 mph94%29.71 "HgN/A
11:00 PM57 °FPassing clouds.9 mph88%29.71 "HgN/A
10:30 PM59 °FPassing clouds.8 mph88%29.74 "HgN/A
10:00 PM59 °FPassing clouds.9 mph88%29.74 "HgN/A
9:30 PM59 °FPassing clouds.9 mph82%29.74 "HgN/A
9:00 PM59 °FScattered clouds.9 mph82%29.71 "HgN/A
8:30 PM59 °FPassing clouds.12 mph88%29.71 "HgN/A
8:00 PM59 °FPassing clouds.8 mph88%29.71 "HgN/A
7:30 PM57 °FPassing clouds.5 mph88%29.71 "HgN/A
7:00 PM57 °FScattered clouds.13 mph82%29.74 "HgN/A
6:30 PM59 °FPassing clouds.12 mph82%29.74 "HgN/A
6:00 PM61 °FPassing clouds.14 mph88%29.74 "HgN/A
5:30 PM61 °FScattered clouds.12 mph77%29.74 "HgN/A
5:00 PM63 °FScattered clouds.12 mph77%29.74 "HgN/A
4:30 PM63 °FScattered clouds.12 mph77%29.74 "HgN/A
4:00 PM61 °FScattered clouds.14 mph83%29.74 "HgN/A
3:30 PM61 °FScattered clouds.12 mph77%29.77 "HgN/A
3:00 PM61 °FScattered clouds.13 mph83%29.77 "HgN/A
2:30 PM63 °FScattered clouds.12 mph77%29.77 "HgN/A
2:00 PM61 °FScattered clouds.13 mph83%29.77 "HgN/A
1:00 PM59 °FPassing clouds.14 mph82%29.80 "HgN/A
12:30 PM61 °FScattered clouds.9 mph88%29.80 "HgN/A
12:00 PM61 °FPassing clouds.10 mph88%29.80 "HgN/A
11:30 AM59 °FPassing clouds.9 mph94%29.80 "HgN/A
11:00 AM59 °FScattered clouds.10 mph88%29.80 "HgN/A
10:30 AM59 °FScattered clouds.10 mph88%29.80 "HgN/A
10:00 AM57 °FSprinkles. Partly sunny.9 mph94%29.80 "HgN/A
Weather by CustomWeather, © 2014

See weather overview